Wind_Speed
9 9 9 9 10 10 11 11 11 11 10 10 12 12 13 13 15 16 18 18 19 19 19 20 20 21 21 21 20 19 19 18 17 16 15 15 14 13 13 12 12 11 10
10 9 8 9 10 11 11 11 11 11 11 11 12 13 13 13 15 16 17 19 20 20 20 21 21 22 23 23 23 22 21 21 20 19 18 17 16 16 15 14 13 13 12
9 8 8 9 10 11 11 11 12 12 12 13 13 14 14 15 15 17 18 19 21 22 22 22 23 23 24 24 24 24 24 23 22 21 21 20 19 18 17 16 16 15 14
7 7 8 9 9 10 10 11 11 12 13 14 14 15 15 16 17 17 18 19 21 22 23 24 24 25 25 25 25 26 26 25 26 25 24 23 22 21 20 19 18 17 16
6 7 8 8 9 9 9 10 11 11 12 13 14 15 16 17 18 19 20 20 22 23 24 25 26 26 26 27 26 27 28 28 28 28 27 26 25 24 22 21 20 19 18
5 6 7 8 8 8 9 9 10 11 12 13 13 15 16 17 18 19 20 22 22 24 25 25 26 27 28 29 29 28 28 29 30 30 30 30 29 27 26 25 23 22 21
5 5 6 7 7 8 9 10 10 11 12 13 14 15 16 17 18 19 21 22 23 24 25 26 27 27 28 29 30 30 29 29 30 31 31 32 32 31 30 28 27 25 24
4 5 6 6 7 8 9 10 11 12 13 13 14 16 17 18 19 20 21 22 23 25 26 28 28 29 29 29 30 30 31 31 31 32 32 33 34 34 33 32 30 29 27
4 5 6 7 7 8 9 10 11 12 13 14 15 16 17 18 19 20 21 23 24 24 26 27 29 30 30 31 31 31 32 33 33 33 34 34 35 36 35 35 34 33 31
4 5 6 7 8 9 10 11 12 13 13 14 15 16 17 18 20 21 22 23 24 25 26 28 29 30 31 32 32 33 34 34 34 34 34 35 35 36 36 36 37 36 35
4 5 7 8 9 10 11 12 13 14 14 15 16 17 18 19 20 21 22 23 24 25 27 28 30 32 32 33 33 34 34 35 35 35 35 36 36 37 38 38 38 39 38
5 6 7 9 10 11 12 13 14 15 15 16 16 17 18 19 20 21 22 23 25 26 27 28 30 32 34 35 35 35 35 36 37 37 37 38 38 38 39 39 39 41 41
6 7 9 10 11 12 14 15 15 16 16 16 17 18 18 19 20 21 22 23 25 26 27 29 30 32 33 36 37 37 38 38 39 39 39 40 40 39 39 40 41 41 42
7 9 10 12 13 14 15 16 17 17 17 18 18 19 19 20 20 21 22 23 25 26 27 28 30 31 33 35 36 38 40 40 41 41 41 41 42 42 41 41 41 42 43
9 10 12 13 14 15 16 17 18 19 19 19 20 20 21 21 22 22 23 24 25 26 27 29 30 31 32 35 36 38 40 41 42 44 44 44 45 44 44 44 43 43 43
11 12 14 15 15 16 17 19 19 19 19 20 21 21 22 22 23 23 24 24 25 26 28 29 30 31 32 34 36 38 40 41 44 45 46 47 47 47 47 47 47 45 45
13 14 15 16 17 18 19 20 20 20 21 21 22 22 23 23 24 25 25 26 26 27 28 29 31 32 33 34 35 37 39 41 43 44 46 48 49 49 49 49 49 49 48
15 15 17 18 18 19 20 21 22 22 22 23 23 24 24 24 25 25 26 26 27 28 29 29 31 32 33 35 35 37 39 41 43 44 45 48 50 51 51 51 51 50 50
16 17 18 19 20 21 22 23 23 23 24 25 25 25 25 26 26 27 27 27 28 29 29 30 31 32 33 34 36 37 38 40 42 44 46 47 49 49 51 52 52 52 51
18 19 20 20 21 22 23 24 24 25 26 26 27 27 27 27 28 28 28 29 29 30 30 30 31 31 32 33 35 36 38 40 41 43 45 46 48 48 50 52 53 53 53
19 20 21 22 23 24 25 25 26 27 27 28 29 29 29 29 29 29 30 30 30 31 31 31 31 31 32 33 34 35 36 38 40 42 43 44 46 47 48 50 52 54 54
21 21 22 23 24 25 26 27 27 28 29 30 30 30 30 30 30 30 30 31 31 31 31 31 31 32 33 33 34 35 36 37 38 41 42 43 44 46 47 49 50 51 53
22 23 24 25 25 26 27 28 29 30 31 31 32 31 31 31 31 31 31 31 31 31 31 31 32 32 33 33 34 34 36 37 37 39 40 41 43 45 47 48 48 50 51
24 24 25 26 27 28 29 29 30 32 32 32 32 32 32 32 32 32 32 32 32 32 32 32 32 33 33 33 34 34 34 35 37 38 39 40 42 44 45 46 47 48 50
25 26 26 27 28 29 30 31 33 33 33 33 33 33 33 33 33 33 34 33 33 33 33 33 33 33 33 34 34 34 35 36 36 37 39 40 41 43 44 46 46 47 49
26 27 28 29 30 31 32 33 34 34 34 34 34 34 34 34 34 34 34 34 34 34 34 34 33 33 33 34 34 34 35 36 36 36 37 38 39 41 43 44 46 47 48
Wind_Direction
286 287 291 289 290 289 287 284 282 280 278 269 260 252 251 250 246 242 238 236 236 237 238 236 234 235 232 229 228 227 227 226 225 223 221 218 215 213 209 206 202 198 195
289 292 292 296 296 292 289 286 281 276 275 270 266 261 257 253 253 246 244 242 239 238 240 241 239 239 237 234 232 229 229 228 227 226 224 222 220 218 217 214 211 207 203
289 293 296 299 299 293 288 286 282 277 272 269 267 263 259 258 257 253 251 246 243 242 241 243 243 242 241 238 236 233 230 229 228 227 225 225 224 222 221 219 217 214 211
291 298 301 301 299 294 289 287 283 279 276 272 269 265 263 261 259 258 256 251 248 247 245 245 245 244 243 240 238 236 233 232 230 227 226 225 225 224 224 222 220 219 217
301 303 304 304 304 301 296 292 288 283 280 275 272 270 268 267 266 263 260 257 255 252 250 249 247 246 245 243 240 238 236 234 232 229 228 226 226 226 226 225 223 222 221
302 305 306 307 306 303 300 295 292 287 282 278 275 271 269 269 268 266 263 261 260 257 254 251 250 247 246 246 245 242 240 239 235 232 230 228 227 226 227 226 225 225 225
313 316 317 317 317 313 306 301 297 292 286 282 279 276 274 272 271 269 267 263 260 259 257 254 252 251 248 246 246 244 242 243 239 234 232 231 227 227 227 227 226 226 226
323 325 323 323 323 323 318 312 306 298 292 288 285 282 279 276 273 271 268 266 263 260 259 255 254 253 251 249 247 245 243 243 241 238 234 233 230 228 228 228 228 227 227
332 329 326 327 328 328 326 322 317 312 304 297 291 286 282 279 276 273 270 267 267 264 261 258 255 254 252 251 248 246 245 244 244 242 239 236 234 231 230 229 229 228 228
343 339 337 338 336 333 329 325 321 316 310 303 298 293 288 284 280 277 273 270 268 265 263 260 256 254 253 252 249 247 246 245 245 244 243 239 237 235 233 231 230 229 228
351 345 343 341 339 334 330 325 321 317 313 308 303 298 293 289 285 282 278 274 271 267 264 263 259 255 253 251 250 249 248 246 244 245 244 243 241 239 237 235 232 231 230
348 343 340 338 335 332 328 326 323 319 316 312 307 303 299 295 290 286 282 279 275 272 268 265 262 258 256 253 251 250 249 248 247 246 245 244 244 242 240 238 235 233 232
339 338 337 334 330 327 325 324 323 321 317 314 311 307 303 300 295 290 287 283 280 276 273 269 265 261 258 256 254 252 250 249 248 248 247 244 244 244 243 241 239 237 235
327 328 330 329 327 325 323 323 322 319 315 313 311 309 305 303 300 295 290 286 282 279 276 273 269 265 261 258 256 254 252 250 249 248 247 246 244 243 243 242 241 241 238
318 320 323 324 325 325 323 322 320 318 316 312 311 309 307 304 302 298 294 289 285 281 279 276 273 269 265 261 258 256 254 251 250 249 247 247 246 244 244 242 241 242 240
314 317 320 321 322 323 323 322 321 319 316 313 312 310 308 306 303 300 296 292 288 285 281 278 275 271 269 266 261 257 255 253 252 251 249 248 247 245 244 243 242 242 242
310 314 317 319 320 321 322 322 322 320 317 315 313 310 308 306 304 301 298 294 291 287 284 280 277 274 271 269 265 260 257 255 254 252 251 249 248 246 245 243 242 242 242
310 313 316 318 317 319 321 322 323 321 319 317 315 313 311 308 307 304 301 297 293 290 286 283 280 277 273 270 267 264 260 257 255 254 252 251 249 247 245 244 242 241 241
309 312 313 316 317 318 319 320 321 321 320 318 315 313 311 310 309 306 303 300 296 293 289 286 282 279 276 272 269 266 263 260 257 255 253 252 250 248 246 244 243 241 240
307 310 312 314 316 317 318 319 319 319 320 319 316 313 311 311 310 308 306 303 300 296 292 288 284 281 278 275 272 268 264 261 259 256 253 251 249 248 247 245 243 242 240
306 308 310 312 315 316 317 318 318 319 319 319 317 314 312 311 311 309 307 305 302 299 295 291 287 283 280 277 274 271 267 263 259 257 254 252 249 247 246 246 244 243 241
305 307 309 312 314 316 317 317 318 318 318 318 317 315 313 312 311 310 308 306 304 301 298 294 290 286 282 279 276 272 269 265 262 260 256 254 251 248 246 246 245 243 241
305 307 309 312 314 316 317 317 317 318 318 318 317 315 314 313 312 311 309 307 305 302 299 296 293 289 285 282 278 274 271 267 264 262 258 254 252 250 248 247 246 244 242
304 305 308 310 313 314 315 315 316 317 317 316 316 315 314 314 313 311 310 308 306 304 301 298 294 290 287 284 280 276 272 269 266 263 260 257 254 252 249 248 247 245 244
302 305 307 309 311 313 313 313 315 315 316 316 315 314 314 313 313 311 310 308 306 305 303 300 296 292 289 285 281 277 273 270 267 264 262 259 256 253 250 249 247 245 244
302 304 306 307 310 311 312 312 314 314 315 315 315 314 313 313 312 311 310 308 306 305 304 301 297 294 291 287 283 279 275 271 268 265 263 260 257 254 251 249 248 246 245
Height
5882 5882 5882 5881 5881 5881 5881 5881 5881 5881 5881 5881 5882 5883 5883 5884 5884 5885 5887 5888 5889 5891 5892 5893 5894 5896 5897 5899 5901 5902 5904 5905 5907 5908 5910 5911 5913 5914 5915 5916 5918 5919 5920
5880 5880 5879 5879 5878 5878 5878 5878 5878 5878 5878 5879 5879 5880 5880 5880 5881 5882 5883 5884 5885 5887 5888 5889 5891 5892 5893 5895 5897 5898 5900 5902 5904 5906 5907 5909 5911 5912 5914 5915 5917 5918 5919
5877 5877 5877 5877 5876 5875 5875 5875 5875 5875 5875 5876 5876 5876 5876 5877 5877 5878 5879 5880 5881 5882 5884 5885 5886 5887 5889 5890 5892 5894 5896 5898 5900 5902 5904 5906 5908 5910 5912 5914 5915 5916 5918
5875 5875 5874 5874 5873 5873 5872 5872 5872 5872 5872 5872 5873 5873 5873 5873 5874 5874 5875 5875 5876 5877 5879 5880 5881 5882 5884 5885 5887 5889 5891 5893 5896 5898 5900 5903 5905 5907 5909 5911 5913 5915 5916
5874 5873 5872 5871 5871 5870 5870 5869 5869 5869 5869 5869 5869 5869 5869 5869 5870 5870 5870 5871 5872 5872 5874 5875 5876 5877 5878 5880 5882 5884 5886 5888 5890 5893 5896 5898 5901 5903 5906 5908 5910 5912 5914
5872 5871 5870 5869 5869 5868 5867 5867 5866 5866 5866 5865 5865 5865 5865 5865 5865 5865 5866 5866 5867 5867 5868 5870 5871 5872 5873 5875 5877 5878 5880 5882 5885 5887 5890 5893 5896 5899 5901 5904 5906 5909 5911
5870 5869 5869 5868 5867 5866 5865 5864 5863 5863 5862 5862 5862 5861 5861 5861 5861 5861 5861 5861 5861 5862 5863 5864 5865 5866 5867 5869 5871 5873 5875 5876 5878 5881 5884 5887 5890 5893 5896 5899 5902 5905 5907
5869 5868 5867 5866 5865 5864 5863 5862 5861 5860 5859 5858 5858 5857 5857 5857 5856 5856 5856 5856 5856 5857 5857 5858 5859 5860 5861 5862 5864 5866 5868 5870 5872 5875 5877 5880 5883 5887 5890 5893 5897 5900 5902
5867 5867 5866 5865 5863 5862 5861 5860 5859 5857 5856 5855 5854 5853 5853 5852 5851 5851 5851 5851 5851 5851 5851 5851 5852 5853 5854 5856 5858 5859 5862 5864 5866 5868 5871 5873 5876 5880 5883 5887 5890 5893 5897
5866 5865 5864 5863 5862 5860 5859 5858 5856 5855 5853 5852 5850 5849 5848 5847 5846 5846 5845 5845 5845 5845 5845 5845 5845 5846 5847 5849 5850 5852 5854 5857 5859 5861 5864 5866 5869 5872 5876 5879 5883 5886 5890
5865 5864 5863 5861 5860 5858 5857 5855 5854 5852 5850 5848 5846 5845 5843 5842 5841 5840 5839 5839 5838 5838 5838 5838 5838 5839 5840 5841 5843 5845 5847 5849 5851 5854 5856 5859 5862 5865 5868 5871 5875 5879 5882
5864 5863 5862 5860 5858 5857 5855 5853 5851 5849 5846 5844 5842 5841 5839 5837 5836 5834 5833 5832 5832 5831 5831 5831 5831 5831 5832 5833 5835 5837 5839 5841 5843 5846 5848 5851 5853 5856 5860 5863 5867 5870 5874
5863 5862 5860 5858 5856 5854 5852 5850 5848 5845 5843 5841 5838 5836 5834 5832 5830 5829 5827 5826 5824 5824 5823 5823 5823 5823 5824 5825 5826 5828 5830 5832 5835 5837 5839 5842 5845 5848 5851 5855 5858 5862 5865
5861 5860 5858 5856 5854 5851 5849 5846 5844 5841 5839 5836 5834 5832 5829 5827 5825 5823 5821 5819 5818 5816 5816 5815 5814 5814 5815 5816 5817 5819 5820 5823 5825 5827 5830 5832 5836 5839 5842 5845 5849 5853 5856
5859 5857 5855 5853 5851 5849 5846 5843 5840 5838 5835 5832 5830 5827 5824 5822 5819 5817 5815 5813 5811 5810 5808 5807 5806 5806 5806 5806 5808 5809 5810 5812 5814 5817 5819 5822 5825 5829 5832 5836 5839 5843 5846
5856 5855 5853 5850 5848 5845 5842 5839 5836 5833 5830 5827 5825 5822 5819 5816 5813 5811 5808 5806 5804 5802 5800 5799 5797 5797 5797 5797 5797 5799 5800 5802 5803 5806 5808 5811 5814 5817 5821 5825 5829 5833 5836
5854 5852 5849 5847 5844 5841 5838 5835 5832 5829 5826 5822 5819 5816 5813 5810 5807 5804 5802 5799 5797 5794 5792 5790 5789 5787 5787 5787 5787 5788 5789 5790 5792 5794 5797 5799 5802 5806 5809 5813 5817 5822 5826
5850 5848 5846 5843 5840 5837 5834 5831 5827 5824 5821 5817 5814 5810 5807 5804 5801 5798 5794 5792 5789 5786 5784 5782 5780 5778 5777 5776 5776 5777 5777 5779 5780 5782 5784 5786 5789 5793 5797 5801 5805 5809 5814
5846 5844 5841 5839 5836 5832 5829 5826 5822 5819 5815 5811 5808 5804 5800 5797 5794 5790 5787 5784 5781 5778 5775 5773 5771 5769 5768 5767 5766 5766 5766 5767 5768 5770 5772 5774 5776 5780 5784 5788 5792 5797 5802
5842 5839 5837 5834 5831 5827 5824 5821 5817 5813 5809 5805 5801 5797 5793 5790 5786 5783 5779 5775 5772 5769 5766 5764 5762 5760 5758 5756 5756 5755 5755 5755 5756 5757 5759 5761 5764 5766 5770 5775 5780 5784 5789
5837 5834 5832 5829 5825 5822 5819 5815 5811 5807 5803 5799 5795 5790 5786 5783 5779 5775 5771 5767 5763 5760 5757 5754 5752 5750 5748 5747 5745 5744 5744 5743 5744 5744 5746 5749 5751 5755 5757 5761 5765 5770 5775
5832 5829 5826 5823 5820 5816 5813 5809 5805 5801 5797 5792 5788 5783 5779 5775 5771 5767 5763 5759 5755 5751 5748 5745 5743 5740 5738 5736 5735 5733 5733 5732 5733 5734 5734 5736 5738 5742 5745 5748 5752 5757 5761
5826 5823 5820 5817 5814 5810 5806 5802 5798 5794 5790 5785 5780 5776 5771 5767 5763 5759 5754 5750 5747 5743 5739 5736 5733 5730 5728 5726 5724 5723 5722 5721 5721 5721 5722 5724 5726 5729 5732 5735 5739 5743 5748
5820 5817 5814 5811 5808 5804 5800 5796 5791 5787 5782 5778 5773 5768 5763 5759 5754 5750 5746 5742 5738 5734 5730 5727 5723 5720 5718 5715 5713 5712 5710 5710 5710 5710 5710 5712 5713 5716 5719 5722 5726 5730 5735
5814 5811 5808 5805 5801 5797 5793 5789 5784 5780 5775 5770 5765 5760 5756 5751 5747 5742 5737 5733 5729 5725 5721 5717 5713 5710 5707 5705 5703 5701 5700 5699 5699 5699 5699 5700 5702 5703 5706 5710 5713 5717 5721
5808 5804 5801 5798 5794 5790 5786 5781 5777 5772 5767 5762 5757 5752 5747 5743 5738 5733 5729 5724 5720 5715 5711 5707 5703 5700 5697 5694 5691 5690 5688 5687 5687 5687 5687 5688 5689 5691 5694 5697 5700 5704 5708